Change the Weather History Date:

Monday, December 3, 2012

  Actual Average Record
Temperature  
Mean Temperature 66 °F -  
Max Temperature 75 °F 46 °F 75 °F (1970)
Min Temperature 55 °F 27 °F 3 °F (2006)
Cooling Degree Days 1    
Growing Degree Days 16 (Base 50)    
Moisture  
Dew Point 55 °F    
Average Humidity 68    
Maximum Humidity 94    
Minimum Humidity 48    
Precipitation  
Precipitation 0.21 in - - ()
Sea Level Pressure  
Sea Level Pressure 29.87 in    
Wind  
Wind Speed 9 mph (SSE)    
Max Wind Speed 26 mph    
Max Gust Speed 34 mph    
Visibility 9 miles    
Events Rain    
Averages and records for this station are not official NWS values.
T = Trace of Precipitation, MM = Missing Value Source: NWS Daily Summary

Daily Weather History Graph

Daily Weather History Graph

Search for Another Location

Airport or City:

Trip Planner

Search our weather history database for the weather conditions in past years. The results will help you decide how hot, cold, wet, or windy it might be!

Date:

Astronomy

Dec. 03, 2012 Rise Set
Actual Time 7:09 AM CST 4:47 PM CST
Civil Twilight 6:40 AM CST 5:16 PM CST
Nautical Twilight 6:07 AM CST 5:49 PM CST
Astronomical Twilight 5:35 AM CST 6:21 PM CST
Moon 9:32 PM CST (12/3) 10:34 AM CST (12/3)
Length of Visible Light 10h 36m
Length of Day
9h 37m
Waning Gibbous, 78% of the Moon is Illuminated
Dec 3
Waning Gibbous
Dec 6
Last Quarter
Dec 13
New
Dec 19
First Quarter
Dec 28
Full

Hourly Weather History & Observations

Time (CST) Temp. Dew Point Humidity Pressure Visibility Wind Dir Wind Speed Gust Speed Precip Events Conditions
12:53 AM 59.0 °F 54.0 °F 83% 29.92 in 10.0 mi ESE 6.9 mph - N/A   Clear
1:53 AM 61.0 °F 55.0 °F 81% 29.92 in 10.0 mi ESE 5.8 mph - N/A   Clear
2:53 AM 61.0 °F 55.9 °F 83% 29.91 in 10.0 mi ESE 5.8 mph - N/A   Clear
3:53 AM 60.1 °F 55.9 °F 86% 29.90 in 9.0 mi East 6.9 mph - N/A   Clear
4:53 AM 60.1 °F 55.9 °F 86% 29.88 in 9.0 mi ESE 8.1 mph - N/A   Clear
5:53 AM 61.0 °F 55.9 °F 83% 29.88 in 10.0 mi ESE 4.6 mph - N/A   Clear
6:53 AM 61.0 °F 55.9 °F 83% 29.86 in 10.0 mi SE 8.1 mph - N/A   Clear
7:53 AM 64.0 °F 57.0 °F 78% 29.86 in 10.0 mi SSE 10.4 mph - N/A   Clear
9:53 AM 69.1 °F 57.9 °F 68% 29.85 in 10.0 mi South 12.7 mph 20.7 mph N/A   Clear
10:53 AM 72.0 °F 57.9 °F 61% 29.84 in 10.0 mi SSW 16.1 mph 26.5 mph N/A   Partly Cloudy
11:53 AM 73.9 °F 57.0 °F 55% 29.80 in 10.0 mi South 21.9 mph 32.2 mph N/A   Scattered Clouds
12:53 PM 75.9 °F 55.9 °F 50% 29.78 in 10.0 mi South 26.5 mph 34.5 mph N/A   Scattered Clouds
1:53 PM 75.0 °F 55.9 °F 51% 29.78 in 10.0 mi South 16.1 mph 24.2 mph N/A   Mostly Cloudy
2:53 PM 75.9 °F 55.0 °F 48% 29.78 in 10.0 mi South 11.5 mph 28.8 mph N/A   Overcast
3:53 PM 73.9 °F 54.0 °F 50% 29.81 in 10.0 mi SSW 9.2 mph - N/A   Overcast
4:53 PM 73.0 °F 53.1 °F 49% 29.83 in 10.0 mi South 4.6 mph - N/A   Overcast
5:53 PM 73.0 °F 53.1 °F 49% 29.84 in 10.0 mi SSW 5.8 mph - N/A   Overcast
6:53 PM 72.0 °F 52.0 °F 49% 29.86 in 10.0 mi South 4.6 mph - N/A   Overcast
7:53 PM 71.1 °F 53.1 °F 53% 29.86 in 10.0 mi South 10.4 mph - N/A   Overcast
8:53 PM 69.1 °F 53.1 °F 57% 29.86 in 10.0 mi South 8.1 mph - N/A   Mostly Cloudy
9:53 PM 68.0 °F 54.0 °F 61% 29.87 in 10.0 mi South 5.8 mph - 0.00 in Rain Light Rain
10:20 PM 59.0 °F 53.6 °F 82% 29.96 in 3.0 mi NW 16.1 mph - 0.08 in Rain Heavy Rain
10:53 PM 57.0 °F 53.1 °F 87% 29.94 in 3.0 mi NW 6.9 mph - 0.21 in Rain Rain
11:49 PM 55.4 °F 53.6 °F 94% 29.98 in 2.5 mi WNW 3.5 mph - 0.15 in Rain Heavy Rain